Theta_e
303 302 301 300 299 298 297 297 297 296 296 296 296 297 297 297 296 296 296 295 295 295 295 294 294 293 293 293 292 292 292 292 292 291 290 290 289 288 288 287 287 287 286 286 286 286 286 286 285 285 285 285 285 284 284 284 284 284 284 284 283 283 283 283 283 284 284 284 284 284 283 283 283 283 283 283 283 282 282 282 281 281 281 281 281
302 301 300 299 299 298 297 297 296 296 296 296 296 296 296 296 296 296 296 295 295 295 295 294 294 293 293 293 292 292 292 292 292 291 290 289 288 288 288 287 287 287 287 286 286 286 286 285 285 285 285 285 284 284 284 284 284 284 284 283 283 283 283 283 283 283 284 284 284 284 283 283 283 283 282 282 282 282 282 281 281 281 280 280 280
301 301 300 299 298 298 297 297 296 296 296 296 296 296 296 296 296 296 296 295 295 295 294 294 294 293 293 293 292 292 293 292 292 290 289 289 288 288 287 287 287 287 287 286 286 286 286 286 285 285 285 284 284 284 284 284 284 283 283 283 283 283 283 283 283 283 283 284 284 283 283 283 283 283 282 282 281 281 281 281 280 280 280 280 280
301 300 299 299 298 298 297 297 296 296 296 296 296 296 296 296 296 296 295 295 295 294 294 294 293 293 293 293 292 293 293 292 291 290 289 288 288 288 287 287 287 287 287 287 286 286 286 286 285 285 285 284 284 284 284 283 283 283 283 283 283 283 283 283 283 283 283 283 283 283 283 283 283 282 282 282 281 281 280 280 280 280 279 279 279
301 300 299 298 298 297 297 296 296 296 296 296 296 296 296 296 295 295 295 295 294 294 294 294 293 293 293 292 292 293 293 292 291 290 289 288 288 288 287 287 287 287 287 287 286 286 286 286 286 285 285 284 284 284 283 283 283 283 283 283 283 283 283 283 283 283 283 283 283 283 282 282 282 282 281 281 281 280 280 280 279 279 279 279 278
301 300 299 298 298 297 297 296 296 296 296 296 296 295 295 295 295 295 295 295 294 294 293 293 293 292 292 292 292 293 292 291 290 290 289 288 288 287 287 287 287 287 287 287 287 286 286 286 286 285 285 284 284 284 283 283 283 283 283 283 283 283 283 283 283 283 283 283 283 282 282 282 282 282 281 280 280 280 279 279 278 278 278 277 277
301 300 299 298 298 297 297 296 296 296 296 296 295 295 295 295 295 295 295 294 294 293 293 293 292 292 292 292 292 292 291 291 290 289 288 288 288 287 287 287 287 287 287 287 287 287 286 286 286 285 285 284 284 283 283 283 283 283 282 282 282 282 283 283 283 283 282 282 282 282 282 282 281 281 281 280 279 278 277 278 277 276 276 276 276
301 300 299 298 298 297 297 296 295 295 295 295 295 295 295 295 294 294 294 294 293 293 293 292 292 292 291 291 292 292 291 290 290 289 288 288 288 287 287 287 287 287 287 287 287 287 287 286 286 286 285 284 284 283 283 283 283 282 282 282 282 282 282 282 283 282 282 282 282 282 282 281 281 281 280 279 278 277 276 275 276 276 275 275 275
301 300 299 298 298 297 296 295 295 295 295 295 294 294 294 294 294 294 293 293 293 292 292 291 291 291 291 291 291 291 291 290 289 289 288 288 288 287 287 287 287 287 287 287 287 287 286 286 286 286 285 284 284 283 283 283 282 282 282 282 282 282 282 282 282 282 282 282 282 282 281 280 279 279 279 278 277 276 275 275 275 275 275 275 275
301 300 299 298 298 297 296 295 295 295 294 294 294 294 294 293 293 293 293 293 292 292 292 291 291 291 291 291 291 291 291 290 289 288 288 288 288 288 287 287 287 287 287 287 287 287 287 286 286 286 285 284 283 283 283 282 282 282 282 282 282 282 282 282 282 282 282 282 281 281 280 279 278 278 278 277 276 275 274 275 275 275 275 275 275
301 300 299 298 297 297 296 295 295 294 294 294 293 293 293 293 293 292 292 292 292 292 291 291 291 291 291 291 291 291 290 290 289 289 289 288 288 288 288 288 287 287 287 287 287 287 286 286 286 286 285 284 283 283 282 282 282 282 282 282 282 282 282 282 282 282 281 281 280 279 279 279 278 277 277 277 276 275 274 274 274 274 274 274 275
301 300 299 298 297 297 296 295 295 294 294 293 293 293 293 292 292 292 292 292 292 291 291 291 291 290 291 291 291 290 290 289 289 289 289 289 288 288 288 288 288 288 287 287 287 287 286 286 286 285 285 284 283 283 282 282 282 282 281 281 282 282 282 282 282 281 281 280 280 279 278 278 277 277 276 276 275 274 274 274 274 274 274 274 274
301 300 299 298 297 297 296 295 295 294 293 293 293 292 292 292 292 291 291 291 291 291 291 290 290 290 291 291 290 290 290 289 289 289 289 289 288 288 288 288 288 288 287 287 286 286 286 286 286 285 285 284 283 283 282 282 282 281 281 281 281 281 281 282 281 281 280 280 279 278 277 277 277 276 276 275 274 274 274 274 274 274 274 274 274
300 300 299 298 297 297 296 295 294 293 293 292 292 292 292 292 291 291 291 291 291 290 290 290 290 290 291 291 290 290 290 289 289 289 289 289 288 288 288 288 288 288 287 287 286 286 286 285 285 285 285 284 284 283 282 282 282 281 281 281 281 281 282 282 281 280 279 279 278 278 277 276 276 276 275 274 274 274 274 274 274 274 274 275 275
299 299 298 298 297 296 296 295 294 293 292 292 292 292 291 291 291 290 290 290 290 290 290 290 290 290 291 291 291 290 289 289 289 289 289 289 288 288 288 288 288 287 287 287 287 286 286 285 285 285 285 284 284 283 282 282 282 281 281 281 281 281 282 282 281 280 279 278 278 277 277 276 276 275 275 275 275 274 274 274 274 274 275 275 275
298 298 298 298 297 297 296 295 294 293 292 292 292 291 291 291 290 290 290 290 290 289 289 290 290 290 290 291 291 290 289 289 289 288 288 288 288 288 288 288 288 287 287 287 287 287 286 286 285 285 285 285 284 283 282 282 281 281 281 281 281 281 282 282 280 279 278 278 278 277 276 276 275 275 275 275 275 275 274 274 274 274 275 275 276
299 299 299 298 297 297 296 295 294 293 292 292 291 291 291 291 290 290 290 290 289 289 289 289 289 289 290 290 290 290 289 289 289 288 288 288 288 288 288 288 288 287 287 287 287 287 286 286 285 285 285 284 284 283 282 282 281 281 281 281 281 282 282 281 280 279 279 278 277 277 276 276 275 275 275 275 274 274 274 274 274 274 274 275 275
301 301 299 298 297 296 296 295 294 293 292 292 291 291 291 291 290 290 290 289 289 289 289 289 289 289 289 290 289 289 289 289 288 288 288 288 288 288 288 288 288 287 287 287 287 287 287 286 286 285 285 284 284 283 282 281 281 281 281 281 281 282 281 280 279 279 279 279 277 276 276 275 275 275 275 275 274 274 274 274 274 274 274 274 274
303 301 299 297 296 296 295 295 294 293 292 292 292 291 291 290 290 290 289 289 289 289 289 289 289 289 289 289 289 289 289 289 288 288 288 288 287 288 288 287 287 288 287 287 287 287 287 286 286 285 285 284 283 283 282 281 281 281 281 281 281 281 281 280 279 280 279 279 277 277 276 275 275 275 274 274 274 274 274 274 274 274 274 274 274
301 299 298 297 296 296 295 295 294 293 293 292 292 291 291 290 290 289 289 289 289 289 288 288 288 289 289 289 289 289 289 288 288 288 287 287 287 287 287 287 287 288 287 287 287 287 287 286 286 285 284 284 283 283 282 281 280 280 280 281 281 281 280 279 279 280 279 278 277 276 276 275 275 275 274 274 274 274 274 274 274 274 274 274 274
299 298 297 296 296 295 295 294 294 293 293 292 292 291 291 290 290 289 289 289 288 288 288 288 288 288 288 288 288 288 288 288 288 287 287 287 287 287 287 287 287 287 287 287 287 287 287 286 286 285 284 283 283 283 282 281 280 280 280 281 281 280 280 279 280 279 278 278 277 276 275 275 275 274 274 274 274 274 274 274 274 273 273 273 273
297 297 296 296 295 295 295 294 294 293 293 292 292 291 291 290 290 289 289 288 288 288 288 288 288 288 288 288 288 288 288 288 288 287 287 287 287 287 287 287 287 287 287 287 287 287 287 286 286 285 284 284 283 282 282 281 280 280 280 280 280 279 279 279 280 279 278 277 277 276 275 275 275 274 274 274 274 274 274 274 274 273 273 273 273
296 296 296 295 295 295 294 294 293 293 292 292 292 291 291 290 290 289 289 289 288 288 288 288 288 288 288 288 288 288 288 288 288 288 287 287 287 287 287 287 287 287 287 287 287 287 286 286 285 285 284 284 283 282 281 280 279 279 279 280 280 279 278 279 279 278 277 277 276 276 275 275 274 274 274 274 274 274 274 274 274 273 273 273 273
295 295 295 295 295 295 294 294 293 293 293 292 291 291 291 290 290 290 289 289 288 288 288 288 287 287 287 287 287 287 288 288 288 288 287 287 287 287 287 287 287 287 287 287 286 286 286 285 285 285 284 284 283 282 281 280 279 279 279 279 279 279 278 278 278 277 277 277 276 275 275 274 274 274 273 273 273 274 274 273 273 273 273 273 273
294 294 294 294 294 294 294 294 293 293 293 292 292 291 291 291 290 290 289 289 289 289 288 288 288 287 287 287 287 287 287 287 287 287 287 287 287 287 287 287 287 287 287 287 286 286 285 285 285 285 284 284 283 282 281 280 280 279 279 279 279 278 278 278 277 277 277 277 276 275 275 274 274 273 273 273 273 273 273 273 273 273 273 273 274
292 292 292 292 292 292 292 292 293 293 293 292 292 292 292 291 291 291 290 290 290 289 289 289 288 288 288 288 289 288 287 287 287 287 287 287 287 287 287 287 286 286 286 286 286 286 285 285 285 284 284 284 283 282 282 280 279 278 278 279 278 277 277 277 276 276 276 276 276 275 274 274 273 273 273 273 273 273 273 273 273 273 273 273 274
291 291 291 291 291 291 291 291 291 291 291 292 292 292 292 292 292 291 291 291 291 291 291 290 290 290 290 290 290 290 289 288 288 287 287 287 286 286 286 286 286 285 285 285 285 285 285 285 285 284 284 284 283 282 282 281 279 278 278 278 277 277 276 276 275 275 276 276 275 275 274 274 273 273 273 272 272 272 272 272 272 272 272 273 273
291 291 291 291 291 291 291 290 290 291 290 291 291 291 291 291 291 291 291 291 291 291 291 291 291 291 291 291 290 289 289 289 289 288 287 287 286 286 285 285 285 285 285 285 285 285 285 284 284 284 283 283 282 281 281 281 280 279 278 277 277 276 275 275 275 275 275 275 274 274 274 274 273 273 272 272 272 272 272 272 272 272 272 272 272
291 291 291 291 291 291 291 291 291 290 290 291 290 290 290 290 290 290 290 290 290 290 290 290 290 290 289 289 289 289 289 289 289 288 287 286 286 285 285 284 284 284 284 284 284 284 284 283 283 283 282 282 281 280 280 280 279 279 278 277 277 276 275 274 275 275 274 274 274 274 274 273 273 273 272 272 272 272 272 272 272 272 272 272 272
291 291 291 291 291 291 291 291 291 291 290 290 290 290 290 290 290 290 290 289 289 289 289 289 289 289 288 289 288 288 288 288 288 287 287 286 286 285 285 284 284 283 283 282 282 282 282 282 282 282 282 281 281 280 280 279 279 279 278 277 276 275 274 274 274 274 274 273 273 273 273 273 273 272 272 272 272 272 272 272 272 272 271 271 271
291 291 291 291 291 291 291 291 291 291 291 290 290 290 290 290 290 290 289 289 289 289 288 288 288 288 288 288 287 287 287 287 286 286 286 286 285 285 284 283 283 282 282 281 280 281 281 281 281 281 281 281 281 280 280 279 279 279 278 276 276 275 274 274 274 273 273 273 273 273 272 273 272 272 272 271 271 272 272 272 272 271 271 271 271
291 291 291 291 291 291 291 291 291 291 290 290 290 290 290 290 290 289 289 289 288 288 288 287 287 287 286 286 286 286 286 286 285 284 284 284 284 283 283 282 281 281 281 280 280 280 281 281 281 281 281 281 281 280 280 279 279 278 277 276 276 275 274 274 273 273 272 272 272 272 272 272 272 272 271 271 271 271 271 271 271 271 271 271 271
290 290 290 290 290 290 290 290 290 290 290 290 290 290 290 290 289 289 289 288 288 288 287 287 287 286 286 285 285 285 285 285 284 284 283 283 282 282 281 281 280 279 279 279 280 280 280 280 280 281 281 281 280 280 279 279 279 278 277 276 276 275 274 273 273 272 272 272 272 271 271 271 271 271 271 271 271 271 271 271 271 271 271 271 271
290 290 290 290 290 290 290 290 290 290 290 290 289 289 289 289 289 289 289 288 288 287 287 287 286 286 286 285 285 284 284 284 283 282 282 282 281 280 279 279 278 278 278 278 279 279 279 280 280 280 280 280 280 279 279 279 278 277 276 276 275 275 274 273 272 272 272 271 271 271 271 271 271 271 271 270 270 270 271 270 271 271 270 270 270
290 290 290 290 290 290 290 290 290 290 289 289 289 289 289 289 288 288 288 288 287 287 287 286 286 285 285 285 284 284 283 283 282 280 279 279 279 278 278 277 277 277 277 277 278 278 278 278 279 279 279 279 278 278 278 277 277 276 276 275 274 274 273 272 272 272 271 271 271 271 271 271 271 270 270 270 270 270 270 270 270 270 270 270 270
290 290 290 290 290 290 290 290 289 289 289 289 289 289 288 288 288 287 287 287 287 287 286 286 285 284 284 284 283 283 282 282 282 280 279 278 277 277 277 277 277 276 277 277 277 277 277 277 277 277 277 277 277 277 277 276 276 276 275 275 274 273 273 272 272 271 271 271 270 270 270 270 270 270 270 270 270 270 270 270 270 270 270 269 269
290 290 290 290 289 289 289 289 289 289 289 289 288 288 288 287 287 287 286 286 286 286 286 285 285 284 283 283 282 282 281 281 281 280 279 278 277 277 277 277 276 276 276 276 276 277 277 277 277 277 277 276 276 276 276 276 276 275 275 274 273 272 272 272 271 271 271 270 270 270 270 270 270 270 269 269 269 269 270 269 269 269 269 269 268
290 289 289 289 289 289 289 289 288 288 288 288 287 287 287 286 286 286 285 285 285 285 284 284 284 283 283 282 281 281 281 280 280 279 278 277 277 277 277 276 276 276 276 276 276 276 276 276 276 276 276 276 276 276 276 275 275 275 274 273 272 272 272 271 271 271 270 270 270 270 270 270 269 269 269 269 269 269 269 269 269 269 269 268 268
289 289 289 289 289 288 288 288 287 287 287 286 286 286 285 285 284 284 284 284 283 283 283 283 283 282 282 281 281 280 280 279 279 278 277 276 276 276 276 276 276 276 276 276 276 276 276 275 275 275 275 275 275 275 275 274 274 273 273 272 271 271 271 271 271 270 270 270 270 270 270 269 269 269 269 269 269 269 269 269 269 268 268 268 268
289 288 288 288 288 287 287 287 286 286 285 285 284 284 284 284 283 283 283 283 282 282 282 282 281 281 281 280 280 279 279 278 278 278 277 276 276 275 275 276 276 276 276 276 276 276 275 275 275 274 274 274 274 273 273 273 273 272 271 271 270 270 270 270 270 270 270 270 270 270 269 269 269 269 269 269 269 268 268 268 268 268 267 267 267
288 287 287 287 287 286 286 285 285 285 285 284 284 283 283 283 283 282 282 282 281 281 281 281 280 280 280 279 279 278 278 278 278 277 277 277 276 276 275 275 275 275 275 275 275 275 275 274 274 274 273 273 273 272 272 272 271 271 270 270 269 269 269 269 269 269 269 269 269 269 269 268 268 268 268 268 268 268 268 268 267 267 267 267 267
287 286 286 286 285 285 285 285 284 284 284 283 283 283 282 282 282 281 281 281 281 281 280 280 280 279 279 278 278 277 278 278 277 277 276 276 276 275 275 275 275 275 274 274 274 274 274 274 273 273 273 272 272 271 271 271 270 270 269 269 269 269 269 269 269 269 269 269 269 269 268 268 268 268 268 268 268 268 267 267 267 267 267 267 267
285 285 285 284 284 284 283 283 283 283 283 282 282 281 281 281 281 281 280 280 280 279 279 279 278 278 277 277 277 276 276 276 275 275 275 275 274 274 274 274 273 273 273 273 273 272 272 272 272 272 271 271 271 270 270 270 269 269 268 268 268 268 268 269 269 269 269 269 269 268 268 267 268 268 268 268 267 267 267 267 267 267 267 266 266
284 284 283 283 283 283 282 282 282 282 282 281 281 280 280 279 279 279 278 278 278 277 277 277 276 276 275 275 274 274 274 273 273 273 273 273 272 272 272 272 272 272 271 271 271 271 270 270 270 270 270 269 269 268 268 268 268 267 267 267 267 268 268 268 268 268 268 268 267 267 267 267 267 268 267 267 267 266 266 267 266 266 266 266 266
283 283 283 282 282 282 281 281 281 280 280 279 279 278 278 277 277 276 276 276 275 275 275 275 274 274 274 273 273 273 272 272 272 271 271 271 271 271 270 270 270 270 270 270 269 269 269 269 269 268 268 268 267 267 267 267 266 266 266 266 267 267 267 267 267 267 267 267 267 266 267 267 267 267 267 266 266 266 266 266 266 266 266 266 266
281 281 281 281 280 280 279 279 278 278 277 277 276 276 275 275 275 275 274 274 274 274 273 273 273 273 272 272 272 272 271 271 271 271 270 270 270 270 269 269 269 269 269 268 268 268 267 267 267 267 267 267 266 266 266 266 266 265 265 266 266 266 267 267 266 266 266 266 266 266 266 267 267 267 266 266 266 266 266 266 266 266 266 266 266
279 279 279 278 278 278 277 277 277 276 276 275 275 275 274 274 274 274 273 273 273 272 272 272 272 271 271 271 271 271 270 270 270 270 269 269 269 269 269 269 268 268 268 268 267 267 267 267 266 266 266 266 266 265 265 265 265 265 265 265 266 266 266 266 265 266 266 266 266 266 266 266 266 266 266 266 266 266 265 266 266 266 266 266 266
277 277 277 277 276 276 276 276 275 275 275 275 274 274 273 273 273 272 272 272 272 271 271 271 271 270 270 270 270 270 269 269 269 269 269 269 268 268 268 268 268 268 268 268 267 267 267 267 266 266 266 266 265 265 265 265 265 265 265 265 265 265 265 265 265 265 265 266 266 266 266 266 266 266 265 265 265 265 265 266 266 266 266 266 265
276 276 276 276 275 275 275 275 275 274 274 273 273 273 272 272 272 271 271 271 270 270 270 270 270 269 269 269 269 269 269 269 268 268 268 268 268 268 268 268 268 268 268 268 267 267 267 267 266 266 266 266 265 265 265 265 265 265 265 265 265 265 264 264 265 265 265 265 265 265 265 265 265 265 265 265 265 265 265 266 266 266 266 265 265
275 275 275 275 275 274 274 274 273 273 273 272 272 271 271 271 270 270 270 270 269 269 269 269 269 269 269 268 268 268 268 268 268 268 268 268 268 268 268 268 268 268 267 267 267 267 266 266 266 266 266 266 265 265 265 265 265 264 264 264 264 264 264 264 265 265 265 265 265 265 265 265 265 265 264 264 265 265 265 265 266 266 265 265 265
274 274 274 274 274 273 273 273 272 272 272 271 271 271 270 270 270 269 269 269 269 269 269 269 268 268 268 268 268 268 268 268 268 268 267 267 267 267 267 267 267 267 267 267 266 266 266 266 266 265 265 265 265 265 265 265 265 265 265 264 264 264 264 265 265 264 264 264 264 264 264 264 264 264 264 264 265 265 265 265 265 265 265 265 265
Wind_Speed
42 42 42 41 40 38 36 35 33 32 30 28 26 25 23 22 21 20 18 17 16 15 14 13 12 11 10 8 7 5 4 2 3 3 4 4 5 5 5 5 5 5 5 6 7 7 8 9 9 9 10 11 11 11 12 12 13 14 15 16 17 18 20 22 25 30 32 31 33 35 35 38 40 40 41 42 42 42 43 42 42 41 40 40 40
44 43 43 42 40 38 37 36 35 33 31 30 28 27 25 24 23 21 20 19 17 16 15 15 14 12 11 9 7 6 4 4 4 4 5 5 5 5 6 6 6 6 6 7 8 8 9 10 10 10 11 12 12 12 13 13 14 15 16 17 17 18 20 22 25 29 32 33 33 35 36 38 40 40 42 44 44 44 44 43 42 41 40 39 39
46 44 43 43 41 39 38 37 36 35 33 32 31 29 27 26 24 23 21 20 19 18 17 16 15 13 11 10 8 7 5 5 5 5 6 6 6 7 7 7 8 8 7 8 9 9 10 11 11 12 12 13 13 13 14 14 15 16 16 17 18 19 20 22 24 28 31 34 34 35 36 38 40 41 42 43 44 44 44 44 42 41 40 39 39
46 45 44 43 42 40 39 38 37 36 35 34 32 31 29 27 26 24 23 22 21 21 20 19 17 15 13 11 10 8 8 7 7 6 7 7 7 8 8 8 9 9 9 9 10 10 11 12 12 13 13 14 15 15 15 15 16 17 17 18 18 19 20 22 24 27 30 33 34 35 37 38 40 41 41 42 43 42 42 42 42 42 41 40 41
48 46 45 45 43 42 41 40 39 38 37 36 34 32 31 29 27 26 25 24 23 23 22 20 18 16 14 12 10 10 10 9 8 8 8 8 8 9 9 10 10 10 10 10 10 11 12 13 13 14 15 15 16 16 16 17 17 17 18 19 19 20 21 22 24 26 29 32 34 35 37 38 40 40 40 41 43 44 43 42 42 42 43 42 41
49 48 47 46 45 43 43 42 41 40 38 37 35 34 32 30 29 28 27 26 26 25 23 21 19 17 15 14 13 13 13 11 10 10 9 9 10 10 10 11 11 11 10 11 11 12 13 13 14 15 16 16 17 17 17 18 18 18 19 19 20 21 22 23 25 27 29 32 34 36 37 38 40 41 40 40 43 44 44 45 44 42 41 43 43
50 49 48 47 45 44 44 43 42 40 39 37 36 35 33 32 30 29 29 28 27 26 24 22 20 18 17 16 15 15 15 13 12 11 10 10 11 11 11 12 11 11 11 12 12 13 14 14 15 16 17 18 18 19 19 19 19 19 19 20 20 21 22 24 25 28 30 32 33 35 37 38 39 41 41 41 42 42 41 44 47 44 41 43 44
50 50 49 48 46 45 44 43 42 40 39 38 37 36 34 33 32 31 30 30 28 26 24 23 21 20 19 18 18 17 16 15 14 13 11 11 12 12 12 12 12 12 12 13 13 14 15 15 16 17 18 19 20 20 20 21 21 20 20 21 21 22 22 24 26 27 29 31 33 34 37 38 39 41 42 42 42 42 38 37 41 41 40 41 42
51 50 50 49 47 45 45 44 42 41 40 39 38 38 36 35 34 33 32 31 29 27 25 24 23 22 21 20 20 19 18 17 16 14 12 12 13 13 13 13 13 13 13 13 14 15 16 16 17 18 19 20 20 21 21 22 22 21 21 21 21 22 23 24 26 27 29 30 32 34 36 37 37 39 41 40 38 38 37 35 37 38 36 39 43
50 50 50 49 47 46 45 44 42 42 41 41 40 39 38 37 36 35 34 32 30 29 27 26 25 24 23 22 22 21 20 19 17 15 13 13 13 14 13 14 14 13 13 13 14 15 16 17 18 19 20 20 21 22 22 22 22 22 22 22 22 22 23 24 25 27 28 30 31 33 34 35 34 35 38 38 35 35 35 35 36 37 36 40 46
50 50 50 48 47 46 45 44 43 43 43 42 41 40 39 39 38 37 35 33 32 31 29 29 27 26 25 24 24 23 21 20 18 16 15 14 14 14 14 14 15 14 13 13 14 15 16 18 19 20 20 20 21 22 22 23 23 23 23 23 22 22 23 24 25 26 27 29 30 29 30 32 33 32 33 35 35 35 34 33 34 37 37 40 48
50 50 49 48 47 46 45 45 44 44 44 43 42 42 41 41 39 38 37 35 34 32 31 30 29 27 26 25 25 24 22 21 20 18 17 16 15 15 14 15 15 14 13 13 14 15 17 18 20 20 20 21 21 22 22 23 23 23 23 23 23 22 22 22 23 24 25 27 28 27 27 29 30 30 31 33 33 34 34 35 36 39 40 42 46
50 50 49 48 48 47 46 46 46 46 45 44 43 43 42 42 41 40 39 37 35 34 33 32 30 28 27 26 25 24 24 23 22 20 18 18 17 16 15 16 16 15 14 13 14 15 17 19 20 20 21 21 21 22 22 23 23 23 23 23 23 23 22 22 21 22 23 25 27 26 25 26 28 29 28 29 31 33 36 38 38 39 41 42 44
49 49 48 48 48 48 47 47 47 47 46 44 44 44 44 44 43 41 40 38 37 36 35 33 31 29 27 27 26 26 26 25 24 22 21 20 19 17 16 17 17 16 14 13 14 15 17 18 19 20 20 21 21 22 22 23 24 24 24 24 23 23 23 22 21 22 22 23 24 25 23 24 25 27 26 27 29 32 35 37 37 38 40 41 41
47 47 47 48 49 49 48 48 48 47 46 46 46 46 46 45 44 42 41 40 39 37 35 34 32 30 29 28 28 29 28 27 26 24 23 22 21 19 18 18 18 17 15 14 14 15 16 18 19 19 20 20 21 22 23 24 25 25 24 24 24 24 23 23 22 22 23 23 23 23 23 23 23 24 25 26 28 30 32 34 35 36 38 40 39
44 45 46 47 48 49 49 49 48 48 47 47 47 47 47 46 45 44 43 41 40 38 37 35 34 32 31 30 30 31 30 29 28 27 25 24 22 22 21 20 20 19 17 16 15 15 16 17 18 19 19 20 20 21 23 24 25 25 25 25 25 25 23 22 21 22 23 23 22 21 21 20 20 22 23 25 27 29 31 32 33 33 35 38 39
40 41 44 46 48 49 49 50 49 48 48 48 48 48 47 46 46 45 44 43 41 40 39 38 36 35 33 32 33 32 31 31 31 29 27 26 25 24 23 23 23 21 19 18 17 17 17 18 18 19 19 19 19 21 23 24 25 26 26 26 27 25 23 22 22 22 23 22 20 19 19 19 20 21 21 23 25 28 29 30 31 31 33 36 37
34 38 42 45 47 48 49 49 48 48 48 48 48 48 47 47 47 46 46 44 43 42 41 39 38 37 36 35 35 34 33 33 33 31 29 28 27 27 26 25 25 24 23 22 20 19 19 19 19 20 20 18 19 22 23 24 26 26 26 27 27 25 23 22 23 24 25 23 20 19 18 18 19 20 21 22 24 26 28 29 29 30 31 33 35
32 36 38 40 41 42 43 45 46 47 47 47 47 47 47 47 47 47 46 45 44 43 42 41 41 40 39 38 37 36 35 35 34 33 32 30 30 29 29 28 28 27 26 25 24 22 22 22 21 21 20 19 20 22 23 24 26 26 27 28 27 25 23 23 25 26 26 24 22 20 18 18 19 20 21 21 23 25 26 27 27 28 30 31 33
28 29 30 32 33 35 37 39 40 42 43 43 43 44 45 46 47 47 47 47 45 45 44 43 43 42 41 41 40 39 38 37 36 36 35 33 32 32 32 32 31 30 29 29 27 26 26 26 24 22 21 20 21 22 24 25 26 27 28 28 27 25 23 24 26 27 26 24 24 22 20 19 20 20 21 21 22 23 24 25 26 27 29 31 31
21 22 24 25 27 28 29 31 33 34 36 37 38 40 42 43 45 46 46 47 47 47 46 46 45 44 43 43 43 42 41 40 39 38 38 37 35 35 36 35 34 32 32 32 31 30 30 29 26 23 22 22 22 23 24 25 26 27 28 28 26 25 25 26 27 26 25 25 24 23 21 20 20 20 21 21 22 22 23 23 24 25 26 28 30
16 18 19 20 21 22 23 25 27 28 30 32 34 36 37 39 41 42 44 45 46 47 48 48 47 47 46 46 46 45 44 43 42 41 40 40 39 39 40 39 37 35 35 35 35 34 33 31 28 25 24 23 23 24 25 26 27 27 28 28 27 25 25 27 27 26 25 25 25 24 22 21 21 20 21 21 21 21 22 23 23 24 25 26 27
12 13 14 15 16 17 19 21 22 24 26 28 30 31 33 35 36 38 40 42 43 45 47 48 49 49 49 49 49 49 47 46 45 44 43 42 42 43 43 43 41 40 39 39 38 37 35 32 30 28 27 25 24 25 26 27 27 28 28 28 27 26 27 27 26 25 25 25 26 24 22 21 21 21 21 21 21 21 22 22 23 24 25 25 26
10 10 11 13 14 15 16 18 19 21 23 25 27 28 30 32 33 35 37 38 40 41 43 45 47 49 50 51 51 51 51 50 48 47 45 45 45 46 46 45 45 44 44 43 41 39 36 34 32 31 29 28 26 26 27 27 27 28 29 28 27 26 27 27 26 25 26 26 26 25 23 21 22 22 22 22 22 22 23 23 23 23 25 26 26
8 9 10 11 11 12 14 15 17 18 20 22 24 25 27 29 31 32 34 36 37 38 39 41 43 45 47 48 49 50 51 51 51 50 49 48 47 48 48 48 48 48 48 47 45 40 37 35 35 34 33 30 28 28 29 28 28 28 29 28 27 27 27 26 26 26 27 26 26 25 23 22 22 23 23 23 22 23 24 24 23 24 26 27 27
8 8 9 10 10 11 12 14 15 16 17 19 21 22 24 26 28 29 31 33 34 36 37 39 40 42 44 45 45 46 48 49 50 51 52 51 51 50 50 50 50 50 49 49 47 43 40 38 39 38 36 33 30 29 29 29 28 29 30 29 29 28 28 27 26 27 27 27 26 25 24 24 23 23 23 23 23 23 25 27 26 25 26 28 29
7 8 8 8 9 10 10 11 12 13 15 16 18 20 22 24 26 28 29 31 32 33 35 37 38 40 41 41 42 44 45 46 48 49 50 52 52 51 52 52 52 51 50 49 49 47 45 43 41 39 37 35 32 31 31 30 29 29 30 30 29 29 29 28 28 29 28 27 26 26 25 25 25 24 23 23 23 23 25 27 28 28 27 29 30
7 8 8 9 10 11 11 12 12 13 15 16 17 19 20 22 24 25 26 27 29 31 32 34 36 37 38 38 40 41 43 44 44 45 45 47 48 48 49 50 52 52 51 50 49 47 47 45 43 40 38 36 34 33 33 32 31 30 31 30 30 30 30 30 30 29 28 27 27 28 27 26 26 25 24 24 23 24 25 27 28 28 28 28 30
8 9 10 11 12 12 13 15 16 17 18 19 20 21 22 23 24 25 25 27 28 30 32 33 34 35 36 37 38 40 40 40 40 41 41 42 43 43 43 43 45 46 48 48 48 47 46 45 43 41 40 38 37 36 35 34 33 33 33 32 31 30 31 31 30 29 27 27 29 29 28 27 27 25 25 25 24 24 25 27 28 28 28 28 29
11 12 13 13 13 14 15 16 17 19 20 22 23 23 24 25 26 26 27 28 29 30 32 33 33 35 36 37 37 39 39 39 39 40 41 41 41 40 39 39 38 38 40 42 44 45 44 43 43 43 42 41 40 39 37 35 35 35 34 33 32 31 31 31 29 27 27 29 30 30 29 28 27 26 26 26 25 24 25 26 27 28 29 29 29
15 15 16 16 16 17 18 19 20 21 22 23 24 25 25 26 26 27 28 28 29 30 32 33 34 35 36 37 37 38 38 38 39 40 40 41 41 40 38 37 35 34 34 36 40 43 44 45 45 45 44 43 43 41 37 35 34 34 33 32 31 31 30 30 28 27 28 30 31 30 29 28 28 27 26 27 27 26 25 25 26 28 28 29 30
18 18 18 19 19 20 21 21 22 23 24 25 26 27 27 27 27 27 28 28 29 30 30 31 32 33 34 35 36 36 36 36 37 37 38 38 38 37 35 33 32 31 31 33 38 42 44 45 46 45 44 44 43 40 36 34 32 30 29 30 30 29 29 29 28 28 29 31 31 31 29 28 28 28 27 27 27 27 26 26 26 27 28 29 29
20 20 20 21 21 22 22 23 24 25 25 26 27 27 28 28 28 28 27 27 29 30 30 30 30 31 31 32 33 33 34 34 34 34 34 34 33 32 31 29 28 27 29 34 39 41 42 43 43 44 43 43 42 38 34 32 29 27 27 27 27 27 28 28 29 30 31 31 31 31 29 28 27 28 27 27 27 27 27 27 26 27 28 29 30
20 20 21 22 22 23 23 24 25 25 26 26 27 27 27 27 28 28 28 28 28 28 29 29 29 29 30 30 30 30 31 31 32 32 32 31 29 27 26 25 24 24 27 32 37 39 39 40 41 41 41 40 38 35 33 31 28 27 27 28 27 27 27 28 30 31 31 31 31 31 30 28 27 27 27 27 26 27 27 27 27 27 28 29 30
19 20 21 22 23 23 24 25 25 26 26 26 26 26 27 27 27 27 28 28 28 27 27 27 27 28 29 29 29 29 29 29 29 28 28 28 26 23 21 23 24 24 25 29 32 34 35 36 37 37 37 36 35 34 32 31 31 30 31 30 29 28 29 31 32 32 31 31 31 31 29 28 27 27 27 28 27 27 27 27 27 27 28 29 29
20 21 22 22 23 24 24 24 25 25 25 25 26 26 26 26 26 26 26 27 27 27 27 26 25 26 26 27 28 27 27 28 28 26 24 23 23 22 20 21 23 25 27 29 31 32 34 35 36 36 36 36 35 35 34 34 34 33 33 33 31 31 32 34 33 32 31 30 31 30 30 29 27 26 27 28 27 27 27 27 26 27 28 28 29
20 21 21 22 22 23 23 23 24 24 24 25 25 26 26 26 26 25 25 25 26 26 26 26 25 24 24 23 24 25 25 25 26 25 23 20 20 21 20 20 22 24 26 28 29 30 32 34 35 36 37 37 37 37 37 36 36 36 36 35 33 34 35 36 34 32 31 30 31 30 29 29 27 26 27 28 28 27 26 26 27 27 27 27 28
20 20 20 21 21 21 22 22 23 23 24 24 24 24 24 24 24 24 24 24 24 24 24 24 24 23 22 21 21 21 21 21 22 22 21 19 19 22 23 23 24 25 27 28 28 29 30 32 33 34 36 37 38 39 39 39 39 39 38 36 35 35 35 35 34 32 31 31 30 30 29 29 27 26 27 29 28 27 26 26 27 27 27 27 27
20 21 21 21 21 22 22 22 22 22 23 23 23 23 23 22 22 22 21 21 21 21 21 22 21 21 20 19 19 18 18 18 18 19 19 19 20 23 25 26 27 28 29 30 30 30 31 33 33 34 35 36 37 38 39 40 40 40 38 36 35 34 34 33 33 33 32 31 30 29 29 29 27 26 27 28 28 27 26 26 26 27 27 27 26
20 21 21 21 21 22 22 21 21 21 21 20 20 21 20 20 19 19 19 19 19 19 19 19 18 18 17 17 17 17 17 17 16 17 18 19 20 22 25 27 30 32 33 34 35 36 37 37 37 37 37 37 37 38 39 39 39 39 37 36 35 34 33 33 34 34 32 31 29 29 29 28 27 26 27 28 28 27 26 26 26 26 26 26 26
20 21 21 21 21 21 20 20 19 19 18 19 19 19 19 18 18 18 18 18 18 18 17 17 16 16 16 16 16 16 18 18 17 17 18 19 21 22 24 26 29 31 33 35 37 38 39 39 40 40 40 40 40 40 41 40 39 38 37 36 35 34 34 34 34 34 32 30 29 29 29 28 26 27 28 28 27 26 26 25 25 25 26 25 24
19 19 19 19 19 18 18 17 16 16 17 18 18 18 18 18 18 18 18 18 18 17 17 17 16 16 17 17 17 17 19 19 19 19 20 20 22 23 24 26 27 29 30 32 34 35 36 37 38 39 40 41 41 41 40 40 39 38 37 36 35 34 35 34 34 32 30 28 28 28 28 27 26 27 28 27 26 26 25 24 24 25 25 24 23
16 17 17 17 16 16 15 15 15 16 16 17 17 18 18 17 17 17 17 17 17 17 17 17 17 17 17 17 18 18 19 20 20 21 21 22 22 23 24 25 26 27 28 30 31 32 33 34 35 36 37 37 38 38 38 37 37 36 35 34 34 34 34 33 32 30 28 27 27 27 27 27 27 27 28 27 26 25 24 24 24 24 24 23 22
14 14 14 15 15 15 15 16 16 16 17 17 17 17 17 17 17 17 17 17 17 17 17 18 18 18 17 18 18 19 19 20 20 21 22 22 23 23 23 24 25 25 26 27 28 28 30 31 32 33 33 33 34 34 34 35 35 34 34 33 33 32 32 31 29 27 26 26 26 27 27 27 27 27 27 26 25 24 23 23 23 23 23 22 21
12 13 13 14 14 15 15 16 16 16 16 16 16 16 16 16 16 16 17 17 17 17 18 18 18 18 18 18 18 18 19 18 19 19 20 20 21 21 21 22 22 23 23 24 24 24 25 26 27 28 29 29 29 30 30 31 32 32 32 32 32 32 31 29 27 25 25 26 26 26 26 26 26 26 26 25 23 23 23 22 22 22 21 20 19
12 12 13 13 14 14 14 15 15 15 15 15 15 16 16 16 16 16 17 17 17 17 17 18 18 18 18 17 17 17 17 17 17 17 17 17 18 18 18 19 19 19 20 20 21 21 22 22 23 24 24 24 24 25 26 28 29 30 30 30 30 30 30 28 26 25 25 26 26 26 26 26 26 26 25 24 22 22 22 21 20 20 20 19 19
11 11 12 12 13 13 14 14 14 14 15 15 15 16 16 16 16 16 16 17 17 17 17 17 16 16 16 16 16 16 16 16 16 15 15 16 16 16 17 17 17 17 18 18 18 19 20 20 21 22 22 21 21 21 22 25 26 27 27 27 28 28 28 27 26 25 25 25 26 26 26 26 25 25 23 22 21 21 20 20 19 19 19 19 18
10 10 11 12 12 13 13 14 14 15 15 15 15 16 16 16 16 16 16 16 16 16 15 15 15 15 15 15 15 15 15 15 15 15 15 15 15 16 16 16 16 16 17 17 17 18 19 20 21 21 21 21 20 20 20 21 23 23 23 24 25 26 26 25 25 24 24 25 25 25 25 25 24 23 22 21 20 20 19 19 18 19 19 18 18
10 11 11 12 12 13 13 14 14 15 15 15 15 15 15 15 15 15 15 15 15 15 15 15 15 15 15 15 15 15 15 15 15 15 15 15 15 16 16 16 16 16 17 16 16 17 18 19 20 20 21 21 20 20 20 20 20 20 20 21 22 24 24 24 23 23 24 24 24 24 24 24 23 22 21 20 19 19 19 18 18 18 18 18 17
11 11 12 12 13 13 14 14 14 15 15 15 15 15 15 15 15 15 14 14 14 15 15 15 15 15 15 15 15 16 16 15 15 15 15 15 15 16 16 16 16 16 17 17 16 17 17 18 19 19 19 19 19 19 19 19 19 18 19 19 20 21 22 22 22 22 23 23 23 23 23 23 22 21 20 19 19 19 18 17 18 18 18 18 17
12 12 13 13 13 14 14 14 14 15 15 15 15 15 15 15 15 15 15 15 15 15 15 15 16 16 16 16 16 16 16 16 16 16 16 16 16 16 16 16 16 16 16 16 16 16 16 17 17 18 18 18 18 18 18 18 18 18 18 19 19 19 19 20 20 21 21 22 22 22 22 22 21 20 19 19 18 18 18 17 17 18 17 17 17
Wind_Direction
200 198 197 197 196 195 194 195 196 196 196 197 199 200 199 200 198 197 195 196 198 197 196 196 196 198 197 195 195 197 209 242 284 297 298 291 282 281 281 281 283 283 282 282 282 282 284 284 286 289 294 299 302 304 308 311 312 314 315 316 319 320 321 322 321 322 326 330 330 331 331 329 329 330 329 328 328 326 325 325 325 324 324 324 323
202 201 199 198 198 197 197 197 197 197 198 199 200 201 201 201 199 199 199 200 201 201 202 202 201 202 200 201 203 207 226 260 274 278 277 269 265 267 268 269 274 274 272 273 273 274 278 282 286 289 291 294 297 300 303 306 308 310 312 314 316 319 321 322 323 323 325 327 329 329 329 328 328 329 329 327 327 326 325 326 326 326 326 325 323
204 202 201 200 199 199 199 199 199 199 200 201 202 203 203 203 202 202 202 204 205 205 206 206 206 205 204 206 209 216 239 255 259 265 264 258 256 257 259 262 264 267 268 269 270 273 277 283 286 288 290 291 294 298 300 303 304 306 309 311 314 317 320 322 323 323 324 325 327 328 328 328 327 328 328 327 327 327 326 326 327 326 326 326 325
206 204 203 202 201 201 201 202 202 202 203 204 205 205 205 205 204 204 205 207 209 209 209 209 209 209 210 211 215 227 242 247 249 255 253 250 250 250 255 259 260 264 268 269 272 274 277 282 285 286 287 289 292 295 297 299 301 303 306 309 313 316 319 322 322 322 322 323 325 327 327 327 326 327 328 327 327 327 327 328 328 328 329 329 327
208 206 205 204 203 203 203 204 205 205 205 206 207 207 207 208 207 207 209 210 212 213 213 213 213 212 213 216 224 237 244 243 244 247 245 244 246 248 253 257 260 264 267 270 273 276 277 282 285 286 287 288 290 292 294 296 298 301 304 307 311 314 318 320 320 320 321 322 324 326 326 326 326 327 330 329 328 328 328 329 329 330 330 330 329
209 208 207 206 206 205 205 206 207 207 208 208 209 209 210 210 210 211 212 214 215 215 216 218 217 216 217 221 230 239 242 241 241 242 242 243 246 249 252 256 260 264 268 272 274 276 278 281 283 286 287 287 288 289 291 292 295 298 301 305 309 313 316 318 319 320 321 322 324 325 325 326 327 328 331 332 330 329 330 330 331 332 332 331 330
211 210 209 209 208 208 208 209 209 209 210 210 211 212 212 213 213 214 216 216 217 218 219 220 220 220 222 226 233 239 240 241 240 239 240 245 248 251 254 258 263 266 270 274 275 278 279 280 283 285 286 287 287 287 288 289 292 295 299 303 307 310 314 316 318 321 321 321 322 323 324 326 328 329 331 332 332 332 333 331 330 331 331 329 328
212 212 211 211 211 211 211 211 211 211 212 213 213 214 215 215 216 217 218 219 220 221 222 223 223 224 225 229 236 241 241 242 240 237 241 247 250 252 255 259 264 268 272 275 277 279 280 281 284 285 285 286 286 285 286 287 289 293 296 300 304 308 312 315 318 319 319 319 321 324 325 327 330 331 331 333 333 332 332 330 326 326 327 326 326
214 214 214 214 214 214 214 213 213 214 214 215 215 216 217 218 218 219 220 221 222 222 222 223 224 226 229 232 238 242 243 243 240 239 244 249 251 253 257 261 265 269 271 275 278 280 282 283 284 285 284 285 284 284 285 285 288 291 294 298 302 306 310 314 317 316 316 319 322 325 327 329 331 331 331 332 331 328 328 326 322 322 323 322 322
217 217 217 216 216 216 216 216 216 217 217 217 218 219 219 220 221 221 222 222 223 224 223 222 223 227 230 235 241 243 244 244 241 240 245 251 254 255 258 262 266 268 271 275 278 281 283 284 284 284 284 283 283 283 283 284 287 290 293 297 300 304 309 313 313 313 316 320 322 325 327 328 329 329 329 329 327 325 326 325 322 321 320 320 321
219 220 220 219 218 218 218 219 219 220 220 220 220 221 221 222 223 223 223 224 225 225 224 223 225 228 231 237 243 244 244 245 243 242 247 252 254 256 260 265 267 269 272 275 279 283 285 286 285 285 283 282 282 281 282 283 284 287 291 294 297 301 306 309 310 312 317 320 320 322 324 324 326 327 326 325 325 325 324 320 317 318 319 319 319
221 222 222 221 221 221 221 222 222 223 223 222 223 223 224 224 225 225 225 226 227 227 226 226 227 229 232 238 242 242 244 246 244 244 249 253 255 256 261 267 268 270 271 274 281 285 287 287 286 285 283 281 280 279 280 281 282 285 288 290 293 297 301 303 307 312 316 316 316 318 321 322 323 323 323 324 324 322 318 316 316 317 317 318 317
223 224 224 224 224 224 224 225 225 226 225 225 225 225 226 227 227 227 228 229 229 229 228 227 227 229 235 240 242 243 245 246 245 245 250 255 256 257 262 268 270 270 272 277 284 287 288 288 286 285 283 280 279 278 278 279 280 282 284 287 290 294 297 300 305 310 311 311 314 317 320 320 318 319 322 322 318 315 315 317 319 319 318 319 318
225 225 226 226 226 227 227 228 228 228 228 227 227 228 229 229 229 230 230 230 231 230 229 229 229 232 237 242 244 245 246 246 245 246 251 255 258 259 262 266 268 269 271 277 284 288 289 288 287 285 283 280 279 278 277 277 278 279 281 284 288 291 295 300 305 308 307 308 313 316 317 315 315 317 319 316 313 313 315 316 319 320 319 318 318
227 228 228 229 229 229 230 231 231 230 230 229 230 231 231 231 231 232 232 233 233 233 232 233 233 234 239 245 246 245 245 246 246 247 251 255 258 261 263 265 265 266 268 273 281 287 289 290 289 287 282 280 279 277 277 277 278 279 281 283 286 289 293 301 306 307 307 309 313 314 314 314 315 314 315 314 313 313 315 315 317 318 317 318 320
233 234 235 234 234 233 234 234 233 232 232 232 232 233 233 234 234 234 235 235 235 234 234 235 235 236 241 246 247 245 246 246 247 248 251 253 255 260 265 266 264 263 264 268 275 282 286 290 291 289 284 280 277 276 276 277 278 280 282 283 285 289 295 302 305 303 303 306 310 311 311 311 309 307 309 312 313 314 315 315 316 316 318 321 324
242 244 244 242 240 239 238 237 236 235 235 234 235 236 236 237 237 237 237 236 236 236 237 237 237 238 241 245 246 246 248 248 248 249 251 252 254 259 264 266 264 263 263 265 269 276 282 285 287 288 286 281 277 274 274 276 278 279 282 283 286 291 297 301 301 297 298 304 307 307 307 305 303 304 308 312 313 314 314 314 317 319 322 325 327
247 248 248 246 244 242 242 241 241 240 239 239 239 240 240 240 241 241 240 240 240 240 241 240 240 240 242 244 245 247 250 250 248 249 251 252 254 258 262 263 263 263 263 264 266 271 276 280 282 285 286 283 277 275 273 274 277 279 281 283 286 291 296 298 296 296 300 305 307 306 307 306 304 306 310 312 312 312 311 314 319 322 325 326 326
244 246 247 247 247 247 248 248 247 246 245 246 245 245 245 244 245 244 244 244 243 243 243 243 243 243 244 245 245 247 249 249 247 248 251 251 254 258 260 261 262 264 265 265 266 268 272 276 278 281 285 284 278 276 275 274 276 277 279 280 283 289 293 293 293 296 301 306 308 310 311 308 304 306 309 311 311 310 311 315 320 323 325 326 327
248 250 251 251 252 253 253 253 253 252 252 252 251 251 250 249 249 248 248 247 245 245 245 245 246 246 247 248 247 247 249 248 246 248 251 251 254 258 260 261 263 266 266 265 265 267 270 273 276 279 283 283 279 277 275 272 273 274 275 277 282 287 289 288 290 295 301 306 308 310 311 307 305 307 309 310 310 310 311 316 320 324 326 326 327
254 255 256 255 256 257 256 257 258 257 258 258 257 256 255 254 254 253 252 250 249 248 248 248 248 249 249 249 249 250 250 250 248 248 251 252 254 257 260 263 264 266 266 265 265 267 269 272 275 277 279 280 281 279 276 273 272 272 274 277 280 283 284 285 289 295 300 303 304 305 306 306 306 306 307 307 308 309 311 315 320 324 325 325 326
254 255 256 256 257 259 259 260 261 260 260 260 259 259 259 258 258 257 256 254 252 252 252 252 252 252 252 251 252 252 252 251 250 249 251 253 255 257 261 265 265 265 265 265 266 267 269 271 273 274 274 277 279 279 278 275 272 270 273 276 277 278 278 282 288 293 296 298 299 301 303 305 304 304 303 303 305 306 309 314 319 322 322 323 324
246 248 250 252 254 257 259 261 262 262 262 261 261 262 262 261 261 260 260 259 257 256 255 254 254 255 255 255 255 255 254 253 252 251 252 253 256 258 261 264 265 264 265 266 267 268 268 268 270 272 273 274 276 276 275 271 269 269 271 273 273 273 274 279 286 290 292 294 296 298 301 303 302 300 300 300 301 304 307 311 316 319 319 321 323
227 231 236 242 247 252 257 259 261 262 262 263 263 264 264 263 263 263 262 262 261 260 259 258 257 258 258 258 258 258 257 256 256 255 254 255 256 258 260 261 264 266 266 267 266 266 266 267 269 270 270 271 273 274 272 270 270 271 271 270 269 269 272 278 283 286 288 291 292 295 299 300 299 297 297 298 300 303 304 308 313 316 316 318 321
218 224 232 239 244 250 254 256 258 260 261 263 263 263 264 264 264 264 264 263 263 263 262 262 261 260 261 261 261 261 261 260 259 258 257 256 256 258 259 260 262 264 266 267 266 266 266 267 267 268 267 268 270 272 271 271 271 269 268 268 270 271 273 277 280 282 285 288 290 293 296 297 295 294 295 296 299 301 303 305 309 312 313 314 317
229 231 237 242 244 248 251 253 256 258 259 261 262 263 264 265 265 265 265 264 264 264 263 263 263 262 262 262 262 263 263 262 261 260 259 258 257 257 258 259 259 259 261 265 267 268 266 265 264 264 266 267 269 270 272 272 268 265 264 267 271 273 274 276 278 280 283 286 288 291 293 293 292 291 292 295 297 300 302 303 306 310 311 312 314
243 243 245 247 247 250 255 257 259 261 261 262 263 263 263 264 264 264 264 264 265 265 265 265 265 264 265 265 264 265 265 264 263 262 261 261 260 259 259 260 259 259 259 262 266 268 268 267 266 266 267 268 268 269 270 270 268 265 266 268 271 273 274 276 276 277 280 284 286 288 289 289 290 290 291 292 295 298 300 303 306 310 312 313 314
248 249 250 252 254 258 263 264 266 268 268 268 269 268 267 268 267 268 269 269 270 270 270 271 271 271 272 273 272 271 270 269 269 269 270 270 268 266 264 263 263 263 262 261 262 264 267 268 268 268 267 267 267 267 269 271 271 270 271 271 271 272 272 273 272 274 278 282 283 284 285 286 287 289 290 291 293 296 299 301 305 308 312 313 315
241 245 249 255 261 264 268 271 272 273 272 272 273 273 272 272 272 273 274 274 273 273 273 273 274 275 275 275 275 274 273 273 274 276 276 275 274 272 269 267 266 265 263 261 260 261 264 265 266 266 265 264 264 264 265 269 272 273 273 272 271 270 269 269 270 273 277 279 279 281 283 284 285 287 288 290 292 295 298 301 304 307 310 312 313
243 247 251 257 262 266 271 273 274 275 275 275 275 275 274 273 273 274 274 273 272 272 272 273 274 274 274 274 274 275 276 277 277 277 276 275 274 274 272 271 268 265 262 259 258 258 260 261 261 261 260 261 261 261 262 265 270 272 272 272 271 269 267 267 270 273 275 275 276 278 280 282 284 285 286 289 292 294 296 300 303 306 309 310 311
251 254 257 260 262 265 269 271 273 275 277 278 278 278 278 277 276 277 277 276 275 274 273 273 273 273 274 275 275 275 276 276 276 276 276 276 276 276 275 274 271 266 261 256 254 254 256 256 257 257 258 259 260 261 262 265 268 270 270 269 268 266 266 268 271 273 273 272 273 274 276 279 281 283 285 288 292 294 297 299 302 304 307 308 310
257 258 260 262 263 266 269 271 274 275 276 278 280 281 281 281 281 281 280 280 278 276 274 273 273 272 273 274 274 275 275 274 274 274 275 276 277 277 276 273 270 265 259 253 250 251 252 254 256 258 260 261 262 262 264 266 268 268 268 267 265 265 266 270 272 272 270 270 270 272 274 276 279 281 284 287 291 294 297 299 302 303 305 307 309
261 261 263 266 269 272 274 275 276 277 278 279 280 281 283 284 284 283 281 278 278 277 276 275 274 272 272 272 272 274 275 275 275 274 274 274 275 276 275 272 268 263 256 252 251 251 252 255 258 261 262 263 265 265 265 267 268 269 271 271 269 267 269 272 273 270 268 268 269 271 272 274 276 279 282 285 289 293 296 299 301 303 304 306 308
268 268 270 272 274 276 277 277 278 279 279 280 281 282 283 283 283 283 281 278 277 276 276 276 275 274 273 272 271 271 272 274 275 277 278 278 277 276 275 273 268 259 252 252 255 257 257 259 261 263 264 266 267 267 266 267 270 274 278 280 277 274 274 275 273 270 268 268 268 270 271 273 275 277 281 284 287 290 294 298 300 302 304 306 308
275 276 277 278 278 279 279 279 280 281 281 282 282 283 282 282 282 281 281 281 279 278 276 275 275 275 275 275 274 273 271 271 271 271 275 278 280 278 274 268 262 254 246 247 253 259 262 264 266 267 268 269 270 270 271 273 276 278 281 284 281 278 278 278 275 271 269 268 267 269 271 272 274 276 280 282 285 288 292 295 299 301 303 305 307
281 280 280 280 280 281 281 281 282 282 283 283 284 283 283 283 283 282 282 282 282 281 281 279 277 276 276 276 277 277 275 274 272 269 267 268 270 274 274 268 261 256 251 249 249 252 257 261 265 268 270 272 273 274 275 276 275 276 280 284 282 279 278 278 275 272 269 267 267 268 270 271 273 275 278 280 283 287 291 294 298 300 301 303 305
281 280 280 281 281 281 282 282 283 284 284 284 284 284 284 283 283 283 283 282 282 282 282 282 281 280 278 277 277 277 276 276 276 274 270 261 256 260 267 266 262 260 260 259 258 257 257 259 261 263 266 268 270 272 273 273 273 275 279 282 280 277 277 276 274 271 268 266 266 267 269 270 272 273 276 279 282 285 289 293 296 298 299 301 303
282 282 283 283 283 284 284 284 284 284 284 284 284 284 283 283 283 283 283 283 283 284 284 285 286 286 285 282 280 277 275 274 272 271 269 259 246 244 249 253 253 254 256 258 259 260 261 262 263 264 265 267 268 269 270 271 272 274 278 279 277 274 273 272 270 269 268 266 266 267 268 269 270 272 274 277 280 284 289 292 295 296 297 299 300
285 286 287 287 287 288 287 286 286 286 286 286 286 285 285 284 284 284 285 286 288 288 288 289 290 290 290 289 286 282 279 275 272 268 265 257 247 242 242 244 246 249 251 252 254 255 257 260 261 262 263 264 265 266 267 268 270 273 275 275 274 271 269 268 267 269 268 267 266 266 266 267 269 271 273 276 280 284 288 290 292 293 295 297 299
290 291 292 292 291 291 290 290 290 290 291 291 291 290 289 288 287 288 290 291 292 292 292 293 293 294 295 293 292 290 286 281 276 271 266 261 255 249 246 245 247 248 250 252 255 257 259 260 261 262 263 264 264 265 267 268 270 272 273 273 272 270 268 267 267 268 267 266 264 264 264 266 269 270 272 275 278 282 285 288 290 291 293 295 297
294 295 295 294 294 294 293 293 293 294 296 296 295 294 292 291 291 292 294 296 297 296 296 296 296 295 294 291 287 284 282 280 277 274 271 267 264 259 256 254 253 254 255 256 257 259 261 261 262 263 263 263 264 265 267 268 268 269 270 270 270 269 267 267 267 268 267 264 263 263 264 266 268 269 271 274 277 280 283 286 287 288 290 292 295
295 294 294 294 294 293 292 291 292 295 297 298 297 296 294 293 293 295 295 295 295 293 291 291 289 287 285 282 278 276 277 279 278 275 272 270 268 265 263 262 261 261 261 262 263 263 264 264 264 265 265 265 265 266 266 267 268 268 268 268 268 267 267 266 267 267 265 262 261 262 264 266 268 269 271 273 276 279 281 283 284 285 287 289 292
296 296 296 294 293 292 290 291 293 296 298 299 298 297 296 295 294 294 292 289 287 285 284 283 282 281 280 279 278 277 278 279 280 279 277 276 274 272 272 270 269 268 268 268 268 269 269 269 269 269 269 270 270 269 269 268 267 267 267 267 267 266 266 265 265 265 264 262 261 262 264 265 267 268 270 273 275 278 279 281 282 283 285 287 289
301 301 300 298 296 295 294 295 296 296 296 295 294 292 291 291 290 288 287 285 284 284 284 284 284 284 283 282 281 281 280 279 280 281 281 281 281 280 279 278 277 276 276 276 275 275 274 274 274 274 274 274 274 274 272 271 269 268 267 266 265 264 263 262 263 262 260 258 258 259 262 264 265 267 269 272 274 276 278 279 281 282 283 284 285
300 299 298 297 295 295 294 293 294 293 292 291 290 289 289 289 289 288 287 286 286 286 286 286 286 286 285 284 283 282 282 281 281 280 281 282 282 283 282 282 282 283 284 284 284 284 283 283 282 281 281 279 278 276 275 273 272 271 269 267 265 262 261 261 260 258 255 255 256 259 261 262 264 265 268 271 273 275 276 277 278 280 281 282 283
295 294 294 293 292 293 293 293 293 293 293 293 293 292 292 291 290 289 288 288 287 286 286 286 285 285 285 285 284 283 283 283 283 282 282 282 283 284 285 286 288 290 292 294 295 295 295 294 293 292 291 289 285 281 277 274 273 271 270 267 264 262 261 260 259 256 255 255 257 259 260 261 262 264 267 270 272 273 274 275 276 277 279 280 281
293 293 293 292 293 294 294 293 294 294 294 293 293 293 293 292 292 291 290 290 289 288 287 287 286 286 286 285 285 285 285 285 285 286 286 287 288 289 290 292 295 297 298 299 300 300 300 300 299 299 298 297 294 289 282 277 275 274 272 268 263 261 260 260 258 256 256 256 257 258 259 260 262 264 267 269 271 271 271 272 274 275 277 278 279
292 292 292 293 293 293 293 293 293 293 293 293 293 292 293 292 292 292 291 291 290 289 289 288 288 288 288 288 288 289 290 291 291 291 291 291 292 292 293 295 297 298 299 301 302 301 301 301 301 300 300 299 298 294 289 284 281 279 276 270 265 262 262 261 259 257 256 256 257 258 259 261 263 266 267 268 268 269 270 271 272 274 276 276 276
290 291 290 290 290 290 290 291 292 291 292 292 292 292 292 292 291 291 290 290 289 289 289 289 290 290 291 291 292 293 293 294 294 294 293 293 294 294 295 297 298 299 300 302 301 300 299 298 297 297 298 297 297 295 292 288 286 283 278 272 267 264 264 263 261 259 258 257 258 260 261 263 265 266 266 266 266 267 269 270 271 272 274 274 273
288 288 289 289 290 291 291 291 291 291 291 291 290 291 291 290 290 290 290 289 290 290 291 292 293 293 293 294 293 294 295 295 295 294 294 294 294 294 296 297 298 299 300 300 299 298 298 297 297 297 297 297 296 295 293 290 287 283 278 273 269 267 267 265 263 261 260 260 261 262 262 264 264 264 264 264 265 267 269 270 270 271 272 272 271
287 288 289 290 290 291 291 290 290 290 289 289 289 289 289 289 290 291 290 290 291 291 292 293 293 294 295 295 295 294 295 294 294 295 295 294 295 296 297 298 298 299 299 299 299 299 299 298 298 298 298 297 296 295 293 291 289 285 280 276 273 270 267 265 262 261 261 262 262 262 262 262 263 263 264 265 267 269 270 270 269 270 271 271 270